Location: Honey Creek State Natural Area
(29.8555°N, 98.4942°W)
Time: 02:10:38
(UTC-05:00)

Tiangong 2 - Visible Passes

Search period start: 20 July 2018 00:00
Search period end: 30 July 2018 00:00
Orbit: 386 x 394 km, 42.8° (Epoch: 20 July)

Date Brightness Start Highest point End Pass type
(mag) Time Alt. Az. Time Alt. Az. Time Alt. Az.
20 Jul 3.9 22:13:23 10° N 22:14:42 12° NNE 22:15:59 10° NE visible
21 Jul 3.6 22:51:32 10° NW 22:53:03 20° NNW 22:53:03 20° NNW visible
22 Jul 3.4 21:54:10 10° NNW 21:56:25 17° NNE 21:57:47 14° NE visible
23 Jul 3.8 20:56:59 10° NNW 20:58:27 13° NNE 20:59:56 10° NE visible
23 Jul 2.5 22:32:40 10° NW 22:34:52 37° NNW 22:34:52 37° NNW visible
24 Jul 2.5 21:35:09 10° NW 21:38:00 29° NNE 21:39:40 18° ENE visible
25 Jul 1.5 22:14:02 10° WNW 22:16:51 55° WSW 22:16:51 55° WSW visible
26 Jul 1.3 21:16:18 10° NW 21:19:28 62° NNE 21:21:45 17° ESE visible
27 Jul 2.7 21:55:47 10° W 21:58:26 24° SW 21:59:04 22° SSW visible
28 Jul 1.6 20:57:40 10° WNW 21:00:47 52° SW 21:03:52 10° SE visible
29 Jul 3.9 21:38:58 10° SW 21:39:34 10° SW 21:40:09 10° SSW visible
